Tracking 19634 objects as of 21-May-2019
HD Live streaming from Space Station
objects crossing your sky now

SAKURA 2A (CS-2A)

Track SAKURA 2A (CS-2A) now!
SAKURA 2A (CS-2A) is classified as:


NORAD ID: 13782
Int'l Code: 1983-006A
Perigee: 35,999.7 km
Apogee: 36,077.0 km
Inclination: 14.2 °
Period: 1,448.6 minutes
Semi major axis: 42409 km
RCS: 5.8102 m2 (large)
Launch date: February 4, 1983
Source: Japan (JPN)
Launch site: TANEGASHIMA SPACE CENTER (TNSTA)
aabbcc
Your satellite tracking list
Your tracking list is empty




NASA's NSSDC Master Catalog

Two Line Element Set (TLE):
1 13782U 83006A   19140.97877941 -.00000265  00000-0  00000+0 0  9998
2 13782  14.2088 341.7093 0009113 290.6368  72.2431  0.99405632102203
Source of the keplerian elements: AFSPC